Location: Newark
(42.8481°N, 0.4872°E)
Time: 00:04:43
(UTC+00:00)

Transit 2A - Pass Details

Date: 01 November 2020
Orbit: 595 x 963 km, 66.7° (Epoch: 03 December)

Event Time Altitude Azimuth Distance (km) Brightness Sun altitude
Rises 00:59:00 0° 233° (SW) 3,627 - -57.2°
Reaches altitude 10° 01:01:43 10° 241° (WSW) 2,694 - -56.9°
Maximum altitude 01:07:41 41° 310° (NW) 1,364 - -56.2°
Drops below altitude 10° 01:13:31 10° 19° (NNE) 2,638 - -55.5°
Exits shadow 01:15:35 - 26° (NNE) 3,337 9.8 -55.2°
Sets 01:16:10 0° 27° (NNE) 3,544 10.0 -55.2°
